Погода в Выксе

Погода в Выксе : погода сейчас, прогноз погоды и архив. Всё, что Вы хотите узнать о погоде в Выксе!

Хотите узнать прогноз погоды в Выксе? Тогда Вам сюда: Погода в Выксе

Поиск расширенной информации на нашем сайте:

Другие новости

Новости СМИ2

Главная страница сайта

Новости сайта

03.07.2017

Напоминаем, что на нашем специализированном сайте Метеоцентр.Азия вы можете получить высокодетализированные автоматические прогнозы погоды по пунктам России, СНГ и мира в авиационном формате (включающие направление и скорость ветра, видимость, явления погоды, количество и форму облачности, нижнюю и верхнюю границу облачности).


Погода в Выксе - сегодня

Время (UTC), дата Ветер
(°,м/с) 
Видим.   Явления Облачность Т
(°С)
Тd
(°С)
f(%) Тe
(°С)
Pmin
(гПа)
dP
(гПа)
Po
(мм)
O2
(г/м3)
Тmin Tmax R s Состояние
почвы
12 20.10.17 310 (СЗ) 4-6{09}  10 км    8/8 1000 м кучево-дожд. 
[Cb cap]
+5.4 -1.4 62 +4  1019.2  0.1  754  298           
15 20.10.17 310 (СЗ) 1-2{06}  10 км    10/10 420 м 
[Sc]
+4 -1.9 65 +5  1019.2  754  300    +5.4       
18 20.10.17 300 (СЗ) 2-4{04}  10 км    10/10 400 м 
[Sc]
+3.3 -0.2 78 +3  1019.6  0.3  754  300           
21 20.10.17 300 (СЗ) 2-3{04}  10 км    6/6 600 м 
[Cu hum]
+1.4 +0.2 92 +1  1019.8  0.1  754  302           
00 21.10.17 280 (З) 2-3{04}  4000 м    10/10 210 м 
[Ns]
-0.9 -1.5 96 -2  1019.2  -0.7  754  305           
03 21.10.17 тихо () -0{04}  4000 м  дымка{туман}  10/10 210 м 
[Ns]
-0.8 -1.4 96 -1  1018.9  -0.3  753  305  -0.9         
06 21.10.17 260 (З) 2-3{04}  4000 м  дымка{снег}  10/10 180 м 
[Ns]
+0.4 +0.1 98 1017.6  -1.2  752  303           
09 21.10.17 320 (СЗ) 3-4{05}  10 км    10/10 300 м 
[Ns]
+2 +0.7 91 +1  1018.4  0.8  753  301           
12 21.10.17 060 (СВ) 2-3{04}  10 км  {снег}  10/10 400 м 
[Sc diur, vesp]
+3 +0.9 86 +2  1017.2  -1  752  300           
15 21.10.17 310 (СЗ) 1-1{03}  10 км    10/10 450 м 
[Sc diur, vesp]
+1.2 +0.4 94 +2  1017.4  752  302    +3     
18 21.10.17 340 (С) 2-2{03}  10 км  {дождь}  10/0 средняя 
[As op]
+0.5 -0.3 94 1017.4  752  303           
21 21.10.17 340 (С) 1-2{02}  10 км    10/0 средняя 
[As op]
-0.8 -1.7 94 1017.5  752  304           
00 22.10.17 350 (С) 1-2{03}  10 км    10/0 средняя 
[As op]
-2 -2.9 94 -1  1017.6  752  306           
03 22.10.17 340 (С) 1-2{03}  10 км    ясно 
-4 -4.9 93 -4  1017.7  752  308  -4.1    0.0     
06 22.10.17 320 (СЗ) 1-2{02}  10 км    10/0 средняя 
[Ac As]
-2.1 -3.3 91 -2  1018.1  0.5  753  306           
09 22.10.17 330 (СЗ) 2-3{05}  10 км    10/6 600 м кучево-дожд., средняя 
[Cb calv|Ac As]
+0.3 -5.2 67 1018.2  0.2  753  304           
12 22.10.17 290 (З) 3-5{05}  10 км    9/9 600 м кучево-дожд. 
[Cb cap]
+1.6 -4.2 65 1018.1  753  302           
15 22.10.17 290 (З) 3-5{06}  10 км    9/9 600 м кучево-дожд. 
[Cb cap]
+0 -5.2 68 -2  1018.1  -0.1  753  304    +1.6       
18 22.10.17 250 (З) 3-4{05}  10 км    ясно 
-1.5 -5.5 74 -3  1018.2  753  306           
21 22.10.17 260 (З) 3-5{07}  10 км    10/0 средняя 
[As op]
-1.2 -5.1 75 -3  1018.2  0.1  753  305           
00 23.10.17 240 (ЮЗ) 2-3{05}  10 км    10/0 средняя 
[As op]
-2.1 -5.3 79 -3  1018.1  -0.2  753  306           
03 23.10.17 250 (З) 2-4{04}  10 км    9/0 средняя 
[As op]
-2 -4.6 82 -3  1017.9  -0.2  753  306  -2.2         
06 23.10.17 250 (З) 2-4{05}  4000 м  слаб. снег  10/10 300 м 
[Sc]
-1.3 -3.2 87 -2  1017.5  -0.2  752  305           
09 23.10.17 280 (З) 2-2{04}  10 км  слаб. снег  10/10 360 м 
[Sc]
-0.1 -2.2 86 -1  1018.1  0.5  753  304           
12 23.10.17 270 (З) 2-3{03}  10 км  {снег}  10/10 480 м 
[Sc]
+1.1 -1.8 81 1018.9  0.9  753  303           
Время (UTC), дата Ветер
(°,м/с) 
Видим.   Явления Облачность Т
(°С)
Тd
(°С)
f(%) Тe
(°С)
Pmin
(гПа)
dP
(гПа)
Po
(мм)
O2
(г/м3)
Тmin Tmax R s Состояние
почвы

Для получения пояснительной информации подведите курсор к названию столбца.

ПОГОДА в Выксе - архив

Всё, что Вы хотите узнать о погоде в Выксе - удобно и подробно!

Выберите нужную дату (начиная с 1 января 2015* года) и нажмите кнопку "Найти".
Будут отображены архивные сводки погоды по пункту Выкса, начиная с указанной даты.


Отображать данные в формате CSV (для использования в таблицах Excel)


Внимание! Наш архив погоды предназначен исключительно для личного некоммерческого использования в познавательных целях. Если Вам необходимы официальные справки о состоянии погоды (для производственных, юридических, коммерческих и т.п. целей), обращайтесь в органы Росгидромета.

*Примечание: данная дата относится к архиву по метеостанциям СССР (Россия, СНГ, Балтия).
Архив по метеостанциям Зарубежной Европы и Азии (кроме Китая) хранится 10 дней, по другим регионам земного шара (Китай, Африка, Америка, Австралия, Океания) - 1 день.

Выкса - район местоположения метеостанции


Название, широта, долгота, высота метеостанции:
Выкса 55.3°ш. 42.1°д. 114 м над ур. моря [Российская Федерация]

Дополнительная информация

В oтличие oт бoльшинства пoгoдных сайтoв мы публикуем пoдрoбную метеoинфoрмацию в детальнoм прoфессиoнальнoм фoрмате.

Характеристики температуры и влажнoсти вoздуха измеряются на высoте 2 м в тени вдали oт зданий и деревьев.
Скoрoсть ветра измеряется на высoте 10 м (на урoвне рoста челoвека скoрoсть ветра ниже в 1.5-2 раза). Если метеoстанция нахoдится в гoрoде или в лесу, тo скoрoсть ветра занижена на 2-4 м/с пo сравнению с oткрытым местoм. Скoрoсть ветра над акватoриями крупных рек и oзёр, а также на вершинах хoлмoв на 2-5 м/с выше, чем в oбычных услoвиях.
Атмoсфернoе давление в разных тoчках местнoсти мoжет значительнo oтличаться oт давления на метеoстанции, в зависимoсти oт услoвий рельефа (при пoдъёме на 10 м давление пoнижается примернo на 1 мм рт.ст.).